Location: Bay Shore Mobile Home Park
(38.5762°N, 75.0841°W)
Time: 13:21:43
(UTC+00:00)

Hubble Space Telescope - Visible Passes

Search period start: 21 January 2026 00:00
Search period end: 31 January 2026 00:00
Orbit: 479 x 481 km, 28.5° (Epoch: 20 January)

Date Brightness Start Highest point End Pass type
(mag) Time Alt. Az. Time Alt. Az. Time Alt. Az.
23 Jan 3.2 00:09:26 10° S 00:09:36 10° S 00:09:36 10° S visible
23 Jan 3.0 23:39:33 10° S 23:40:32 11° SSE 23:41:29 10° SSE visible
24 Jan 3.1 23:09:36 10° S 23:10:37 11° SSE 23:11:38 10° SSE visible
25 Jan 3.6 00:47:14 10° SW 00:47:27 11° SW 00:47:27 11° SW visible
25 Jan 3.1 22:39:39 10° S 22:40:41 11° SSE 22:41:44 10° SSE visible
26 Jan 2.8 00:17:18 10° SW 00:19:16 17° S 00:19:16 17° S visible
26 Jan 2.6 23:47:20 10° SW 23:49:53 17° S 23:51:03 15° SSE visible
27 Jan 2.8 23:17:20 10° SW 23:19:53 17° S 23:22:26 10° SE visible
28 Jan 2.8 22:47:18 10° SW 22:49:51 17° S 22:52:24 10° SE visible
29 Jan 3.0 00:26:56 10° SW 00:28:44 14° SSW 00:28:44 14° SSW visible
29 Jan 3.0 23:56:52 10° SW 23:58:59 14° S 00:00:32 12° SSE visible
30 Jan 3.1 23:26:47 10° SW 23:28:54 14° S 23:31:00 10° SSE visible
